sat.trackr.live / text

‹ back to catalog

STARLINK-5026

NORAD 57260 · 2023-094AU

PAYLOAD ACTIVE UNKNOWN

§ Identity

Operator
Country
US
Launch date
2023-07-07
Launch site
AFWTR
Launch vehicle
Mass (kg)
RCS (m²)

Purposes: comms

External: N2YO · Heavens-Above · Gunter

§ Orbital elements

Epoch: 2026-09-20T18:01:28.399296Z

Period
94.27 min
Inclination
43.0032°
Eccentricity
0.0001302
Mean motion
15.27578188 rev/d
Perigee alt
482.2 km
Apogee alt
483.9 km
Semi-major
6,861.2 km
B*
9.6006e-6
RAAN
358.1512°
Arg perigee
267.7870°
Mean anomaly
92.2832°
Rev number
17,771

§ Raw data

STARLINK-50261 57260U 23094AU  26263.75102314  .00000002  00000+0  96006-5 0  99972 57260  43.0032 358.1512 0001302 267.7870  92.2832 15.27578188177713

JSON: /api/v1/satellites/57260 · /tle

For live sub-satellite position, see the globe view (requires WebGL).

§ Visibility from observer

Set your observer location to see the next 7 days of passes ≥ 10°. The values pass through the URL so the page stays shareable.

No JS? Fill the form by hand. The geolocation button needs JavaScript.